Location: ????????
(60.5616°N, 46.8254°E)
Time: 20:44:35
(UTC+00:00)

SL-16 R/B - Pass Details

Date: 18 February 2020
Orbit: 842 x 846 km, 71.0° (Epoch: 03 April)

Event Time Altitude Azimuth Distance (km) Brightness Sun altitude
Exits shadow 23:20:16 39° 23° (NNE) 1,257 3.4 -35.2°
Drops below altitude 10° 23:23:54 10° 41° (NE) 2,480 5.4 -34.9°
Sets 23:26:23 0° 44° (NE) 3,418 6.4 -34.7°
